www.pogodaiklimat.ru

Погода и климат >> Архив погоды >> Испания >> Madrid


АРХИВ ПОГОДЫ в Madrid

Время (UTC), дата Ветер
(напр.,м/с)
 
Видим.   Явления Облачность Т
(С)
Тd
(С)
f
(%)
Тe
(С)
Тes
(С)
Комфортность P
(гПа)
Po
(гПа)
Тmin
(С)
Tmax
(С)
R
(мм)
R24
(мм)
S
(см)
01 16.09 штиль 0 30 км 3/0
[Ac lent Ci ing]
+18.6 +13.7 73 +19 +19 тепло 1021.0 954.6
02 16.09 штиль 0 30 км 3/0
[Ac lent Ci ing]
+18.3 +13.5 74 +19 +19 тепло 1020.6 954.2
03 16.09 ЮВ 2 30 км 1/0
[Ci fib]
+18.3 +14.0 76 +19 +19 тепло 1020.4 954.0
04 16.09 В 2 30 км ясно +17.7 +14.0 79 +18 +18 тепло 1020.4 953.9
05 16.09 С 1 30 км ясно +16.0 +13.1 83 +17 +17 тепло 1021.0 954.0
06 16.09 С 2 23 км 1/0
[Ac cast Ci fib]
+15.4 +13.3 87 +16 +16 тепло 1021.8 954.6 +15.4
07 16.09 С 2 30 км 1/0
[Ac trans]
+16.7 +13.9 84 +17 +18 прохладно 1021.8 954.9
08 16.09 штиль 0 30 км 1/0
[Ac trans]
+19.4 +14.0 71 +21 +24 комфорт 1021.2 955.0
09 16.09 Ю 1 24 км ясно +21.6 +14.3 63 +25 +31 комфорт 1020.6 954.9
10 16.09 ЮВ 2 30 км ясно +23.6 +14.8 58 +26 +36 жарко 1020.0 954.7
11 16.09 Ю 2 30 км 3/0
[Ci sp]
+25.5 +14.5 51 +28 +40 жарко 1019.0 954.2
12 16.09 Ю 2 27 км 1/1
[Cu med, cong Ci fib]
+27.6 +14.1 44 +30 +42 жарко 1017.9 953.6
13 16.09 Ю 2 30 км 1/1 2000 м
[Cu med, cong Ci sp]
+29.1 +13.0 37 +30 +42 жарко 1016.7 952.8
14 16.09 Ю 4 30 км 3/1 2000 м
[Cu med, cong Ci sp]
+30.5 +12.2 33 +31 +38 жарко 1015.6 952.0
15 16.09 В 3 30 км 3/3 2000 м
[Cu hum Ci sp]
+30.7 +8.8 26 +30 +34 жарко 1015.2 951.6
16 16.09 ЮВ 3 27 км 4/3 1500 м
[Cu med, cong Ci fib]
+31.1 +9.2 26 +30 +33 жарко 1014.8 951.3
17 16.09 ЮВ 1 30 км 4/3 1500 м
[Cu med, cong Ci fib]
+30.7 +9.4 27 +30 +31 жарко 1014.8 951.2
18 16.09 СВ 1 30 км 9/1
[Cb cap Ci]
+28.3 +9.4 31 +28 +28 жарко 1015.6 951.5 +31.3
19 16.09 ЮВ 1 30 км 9/1
[Cb cap Ci]
+26.4 +9.0 33 +27 +27 жарко 1016.1 951.6
20 16.09 Ю 2 30 км 8/1 1500 м
[Cu med, cong Ci sp]
+25.5 +9.5 36 +26 +26 жарко 1016.6 951.9
21 16.09 С 3 30 км 8/1 1500 м
[Cu med, cong Ci sp]
+23.4 +11.3 47 +26 +26 жарко 1017.4 952.2
22 16.09 СЗ 2 30 км 9/1 1500 м
[Cu med, cong Ci sp]
+22.5 +12.2 52 +25 +25 комфорт 1017.7 952.3
23 16.09 С 2 30 км 8/1 1500 м
[Cu med, cong Ci sp]
+21.1 +12.2 57 +23 +23 комфорт 1017.9 952.3
00 17.09 С 2 30 км 8/0
[Cs]
+20.2 +12.3 60 +23 +23 комфорт 1018.1 952.2
01 17.09 В 1 30 км 4/0
[Ci sp]
+19.6 +12.1 62 +22 +22 комфорт 1018.5 952.5
02 17.09 штиль 0 30 км 3/0
[Ci sp]
+19.6 +12.5 64 +21 +21 комфорт 1018.4 952.4
03 17.09 С 1 30 км ясно +19.0 +13.5 70 +21 +21 комфорт 1018.6 952.5
04 17.09 С 2 30 км 3/0
[Ac trans Ci fib]
+18.2 +12.9 71 +19 +19 тепло 1018.7 952.4
05 17.09 СЗ 4 30 км 3/0
[Ac trans Ci fib]
+18.2 +12.4 69 +18 +18 тепло 1018.9 952.5
06 17.09 СЗ 3 30 км 4/0
[Ac trans Ci sp]
+17.9 +12.2 69 +18 +18 тепло 1019.2 952.7 +17.9
07 17.09 С 2 30 км 1/0
[Ac trans Ci sp]
+18.2 +12.7 70 +19 +20 по сезону 1019.1 952.7
08 17.09 С 1 30 км 3/0
[Ac trans Ci sp]
+21.0 +13.6 63 +25 +28 комфорт 1018.4 952.7
09 17.09 СВ 2 22 км 3/0
[Ac trans Ci sp]
+24.5 +13.9 52 +27 +32 жарко 1016.9 952.0
10 17.09 В 3 30 км 1/0
[Ac trans Ci sp]
+26.1 +12.7 43 +28 +35 жарко 1016.3 951.8
11 17.09 ЮВ 2 22 км 1/0
[Ac trans Ci sp]
+27.0 +12.9 42 +29 +40 жарко 1015.5 951.2
12 17.09 ЮВ 4 30 км 3/0
[Ac trans Ci sp]
+28.8 +12.1 36 +30 +38 жарко 1014.4 950.6
13 17.09 В 2 30 км 1/1 1000 м
[Cu hum Ac trans Ci sp]
+29.9 +12.1 33 +31 +42 жарко 1013.2 949.6
14 17.09 ЮВ 3 30 км 3/1 1000 м
[Cu hum Ac trans Ci sp]
+30.7 +12.4 33 +32 +38 жарко 1011.9 948.6
15 17.09 Ю 3 30 км 4/1 1000 м
[Cu med, cong Ac trans Ci sp]
+30.2 +12.6 34 +31 +36 жарко 1011.0 947.6
16 17.09 ЮВ 5 30 км 5/3 1000 м
[Cu med, cong Ac trans Ci sp]
+30.2 +12.0 33 +31 +32 жарко 1010.5 947.1
17 17.09 Ю 6 30 км 5/4 2000 м
[Cb cap Ac trans Ci sp]
+27.5 +12.8 40 +29 +29 жарко 1010.7 946.9
18 17.09 Ю 6 30 км 8/8 2000 м
[Cb cap Ac und Ci sp]
+26.7 +14.1 46 +29 +29 жарко 1011.3 947.3 +31.7
19 17.09 СВ 2 30 км 8/4 2000 м
[Cb cap Ac und Ci sp]
+24.9 +14.6 53 +28 +28 жарко 1012.1 947.7
20 17.09 ЮВ 6 20 км 9/4
[Cb cap Ac und Ci sp]
+24.5 +14.4 53 +27 +27 жарко 1013.3 948.7
21 17.09 В 3 30 км 9/3 1500 м
[Cb cap Ac As Ci sp]
+21.3 +14.0 63 +24 +24 комфорт 1015.6 950.1
22 17.09 В 1 30 км 10/3 1500 м
[Cb cap Ac As Ci sp]
+21.4 +12.3 56 +24 +24 комфорт 1015.9 950.4
23 17.09 С 3 30 км н/о +18.4 +15.0 81 +19 +19 тепло 1017.2 951.1
00 18.09 СВ 1 30 км 10/4 1500 м
[Cu Sc Ac cuf Ci sp]
+18.4 +14.6 79 +20 +20 тепло 1016.7 950.6 0.6
01 18.09 С 2 30 км н/о +18.0 +15.0 83 +19 +19 тепло 1015.9 949.8
02 18.09 С 1 30 км 8/3
[Cu Sc Ac As]
+17.5 +14.8 84 +19 +19 тепло 1015.9 949.6
03 18.09 штиль 0 30 км 10/4 1500 м
[Cu Sc Ac As Ci sp]
+17.3 +14.9 86 +17 +17 тепло 1016.1 949.8
04 18.09 В 1 30 км 10/3 2000 м
[Cu Sc Ac As Ci sp]
+17.6 +14.5 82 +19 +19 тепло 1016.2 949.9
05 18.09 В 1 30 км 9/3 1000 м
[Cu Sc Ac As Ci sp]
+17.6 +14.5 82 +19 +19 тепло 1015.9 949.7
06 18.09 штиль 0 13 км 5/1 1000 м
[Cu hum Ac und]
+16.8 +15.0 89 +17 +17 тепло 1016.2 949.8 +16.8
07 18.09 С 2 19 км 5/0
[Ac lent Ci sp]
+17.3 +15.6 90 +18 +18 по сезону 1016.7 950.4
08 18.09 С 1 27 км 5/0
[Ac lent Ci sp]
+19.7 +15.6 77 +23 +25 комфорт 1016.7 950.9
09 18.09 Ю 2 14 км 5/1 300 м
[St Ac und]
+21.3 +16.9 76 +25 +29 комфорт 1016.8 951.3
10 18.09 ЮВ 2 23 км 5/1 300 м
[St Ac und]
+23.6 +17.2 67 +27 +33 жарко 1016.2 951.3
11 18.09 Ю 3 25 км 4/3 600 м
[Cu hum Ac und Ci fib]
+25.1 +16.5 59 +29 +35 душно 1015.6 951.0
12 18.09 ЮЗ 3 30 км 3/1 1000 м
[Cu hum Cc]
+26.4 +15.7 52 +30 +40 душно 1014.7 950.4
13 18.09 Ю 3 30 км 3/3 2000 м
[Cu hum]
+27.7 +15.5 47 +31 +38 душно 1013.6 949.7
14 18.09 Ю 2 28 км 3/3 1000 м
[Cu hum]
+28.8 +13.5 39 +30 +38 жарко 1012.8 949.1
15 18.09 С 2 27 км 3/3 1000 м
[Cu med, cong]
+28.9 +13.2 38 +30 +35 жарко 1012.5 948.9
16 18.09 СЗ 5 30 км 5/5 2000 м
[Cu med, cong Ci sp]
+27.3 +13.7 43 +29 +30 жарко 1013.1 949.1
17 18.09 З 3 30 км н/о +26.8 +13.0 42 +28 +28 жарко 1013.4 949.2
18 18.09 С 2 30 км 6/5 2000 м
[Cb cap Ac cuf Ci sp]
+25.6 +13.4 47 +28 +28 жарко 1014.3 949.8 +29.5
19 18.09 СВ 2 30 км 6/5 2000 м
[Cb cap Ac cuf Ci sp]
+23.6 +13.5 53 +26 +26 жарко 1015.3 950.3
20 18.09 СВ 2 30 км 6/3 1500 м
[Cu med, cong Ac cuf Ci sp]
+22.3 +14.2 60 +26 +26 жарко 1016.7 951.4
21 18.09 В 2 30 км 4/1 1500 м
[Cu hum Ac trans Ci fib]
+21.8 +13.9 61 +25 +25 комфорт 1017.5 952.0
22 18.09 штиль 0 30 км 1/1 2000 м
[Cu hum]
+20.4 +13.5 65 +22 +22 комфорт 1018.0 952.2
23 18.09 С 2 30 км 1/0
[Ac trans]
+19.7 +13.8 69 +22 +22 комфорт 1018.7 952.7
00 19.09 С 3 30 км ясно +18.7 +14.1 75 +20 +20 тепло 1019.0 952.8
01 19.09 С 1 30 км 1/1
[Cu hum]
+18.4 +14.7 79 +20 +20 тепло 1019.2 952.9
02 19.09 С 2 30 км 1/1 2000 м
[Cu hum]
+17.8 +14.3 80 +18 +18 тепло 1019.4 953.0
03 19.09 С 1 30 км 4/1 1500 м
[Cu hum Ac trans Ci fib]
+16.9 +13.9 82 +18 +18 тепло 1019.7 953.0
04 19.09 СЗ 1 30 км 3/1 2000 м
[Cu hum Ac trans]
+16.4 +13.6 84 +17 +17 тепло 1019.6 952.8
05 19.09 С 2 30 км 3/1 1500 м
[Cu hum Ac trans Ci fib]
+16.1 +13.6 85 +16 +16 тепло 1019.9 953.0
06 19.09 штиль 0 26 км 1/0
[Ac trans Ci fib]
+15.0 +12.9 87 +15 +15 тепло 1020.5 953.3 +15.0
07 19.09 С 2 30 км 1/0
[Ac trans Ci fib]
+16.4 +13.7 84 +16 +17 прохладно 1020.6 953.7
08 19.09 СЗ 1 30 км 1/0
[Ci fib]
+19.0 +13.4 70 +22 +25 комфорт 1020.5 954.2
09 19.09 Ю 2 30 км 1/0
[Ci fib]
+22.1 +13.3 57 +25 +31 комфорт 1020.3 954.7
10 19.09 Ю 1 30 км 1/0
[Ci fib]
+24.4 +13.7 51 +27 +37 жарко 1020.0 954.9
11 19.09 Ю 2 30 км 1/0
[Ci fib]
+26.6 +13.8 45 +29 +40 жарко 1019.2 954.6
12 19.09 ЮВ 2 30 км 3/1
[Cu hum Ci fib]
+28.4 +13.6 40 +30 +41 жарко 1018.2 954.1
13 19.09 Ю 3 30 км 3/3 2000 м
[Cu med, cong]
+29.9 +12.8 35 +31 +38 жарко 1017.0 953.3
14 19.09 ЮВ 4 25 км 4/4 2000 м
[Cb calv]
+31.0 +11.4 30 +31 +36 жарко 1016.3 952.7
15 19.09 З 2 30 км 4/3 1500 м
[Cu med, cong Ac trans Ci sp]
+31.6 +9.3 25 +31 +35 жарко 1015.6 952.1
16 19.09 С 2 25 км 3/3 1500 м
[Cu med, cong]
+31.4 +10.0 27 +31 +34 жарко 1015.3 951.8
17 19.09 ЮЗ 1 30 км 3/3 1500 м
[Cu med, cong]
+30.9 +10.2 28 +31 +32 жарко 1015.6 952.0
18 19.09 ЮВ 2 30 км 3/3 1500 м
[Cu med, cong Ci fib]
+29.3 +11.0 32 +30 +30 жарко 1016.2 952.3 +31.8
19 19.09 Ю 2 30 км 4/1 1500 м
[Cu med, cong Ci fib]
+26.9 +10.0 35 +27 +27 жарко 1016.9 952.5
20 19.09 С 2 30 км 1/0
[Ac cuf]
+25.4 +11.7 42 +27 +27 жарко 1017.9 953.1
21 19.09 С 3 30 км 1/0
[Ac cuf]
+23.5 +12.5 50 +25 +25 комфорт 1018.9 953.6
22 19.09 С 2 30 км ясно +22.2 +12.8 55 +25 +25 комфорт 1019.4 953.8
23 19.09 С 2 30 км 1/0
[Ci sp]
+21.2 +12.5 58 +23 +23 комфорт 1019.7 954.0
00 20.09 штиль 0 30 км 1/1 1500 м
[Cu Sc]
+20.0 +11.4 58 +21 +21 комфорт 1020.0 953.9
01 20.09 С 2 30 км 3/3 2000 м
[Cu Sc]
+18.9 +12.9 68 +21 +21 комфорт 1020.1 953.8
02 20.09 С 3 30 км 1/1 2000 м
[Cu Sc]
+18.9 +13.3 70 +20 +20 тепло 1020.0 953.7
03 20.09 СЗ 2 30 км 1/0
[Ac lent Ci fib]
+17.9 +12.9 73 +18 +18 тепло 1020.3 953.8
04 20.09 СЗ 2 30 км 1/0
[Ac lent Ci fib]
+17.4 +12.9 75 +18 +18 тепло 1020.4 953.8
05 20.09 С 2 30 км 1/0
[Ci fib]
+16.4 +12.8 79 +17 +17 тепло 1020.7 953.8
06 20.09 С 1 30 км 1/0
[Ci fib]
+16.3 +12.8 80 +17 +17 тепло 1020.9 954.0 +16.3
07 20.09 С 1 30 км 1/0
[Ci sp]
+16.9 +13.0 78 +18 +18 по сезону 1021.1 954.3
08 20.09 С 2 30 км ясно +19.8 +12.9 64 +22 +25 комфорт 1020.5 954.4
09 20.09 СВ 1 30 км ясно +22.8 +13.8 57 +26 +33 жарко 1019.9 954.4
10 20.09 Ю 2 30 км ясно +25.8 +14.7 50 +28 +37 жарко 1018.8 954.1
11 20.09 Ю 2 30 км ясно +27.5 +13.8 43 +30 +41 жарко 1018.0 953.7
12 20.09 Ю 3 30 км 1/1 1500 м
[Cu hum]
+29.6 +13.0 36 +31 +41 жарко 1016.7 952.9
13 20.09 Ю 3 28 км 1/1 2000 м
[Cu hum]
+30.8 +11.8 31 +31 +40 жарко 1015.5 951.9
14 20.09 З 3 30 км 3/3 2000 м
[Cu Sc]
+31.7 +10.7 27 +31 +38 жарко 1014.7 951.3
15 20.09 ЮЗ 3 30 км 4/1 2000 м
[Cu med, cong Ci sp]
+32.2 +9.9 25 +32 +36 жарко 1013.9 950.7
16 20.09 ЮЗ 3 30 км 5/4
[Cb calv Ci ing]
+31.9 +9.4 25 +31 +33 жарко 1013.5 950.2
17 20.09 З 3 30 км 5/3
[Cb cap Ac cuf Ci ing]
+31.4 +8.4 24 +30 +31 жарко 1013.5 950.1
18 20.09 С 4 30 км н/о +28.1 +11.9 37 +29 +29 жарко 1014.3 950.3 +32.4
19 20.09 СЗ 3 30 км 3/1 2000 м
[Cu med, cong Ci ing]
+25.7 +13.0 45 +28 +28 жарко 1015.1 950.6
20 20.09 С 2 30 км 3/1 2000 м
[Cu med, cong Ci ing]
+23.8 +13.9 54 +26 +26 жарко 1016.2 951.2
21 20.09 С 3 30 км ясно +23.0 +13.7 56 +26 +26 жарко 1016.5 951.3
22 20.09 СЗ 2 30 км ясно +22.3 +12.9 55 +25 +25 комфорт 1016.5 951.1
23 20.09 СЗ 3 30 км ясно +20.9 +12.6 59 +24 +24 комфорт 1016.8 951.2
00 21.09 СЗ 2 30 км ясно +19.9 +12.3 62 +22 +22 комфорт 1017.1 951.2
01 21.09 С 2 30 км ясно +19.6 +12.8 65 +22 +22 комфорт 1017.1 951.2
02 21.09 С 2 20 км ясно +18.3 +12.0 67 +19 +19 тепло 1017.6 951.3
03 21.09 С 1 30 км н/о +17.5 +12.1 71 +19 +19 тепло 1017.2 950.8
04 21.09 С 3 30 км ясно +17.5 +12.2 71 +18 +18 тепло 1017.6 951.2
05 21.09 С 2 30 км 1/0
[Ac trans Ci fib]
+16.7 +12.3 75 +17 +17 тепло 1018.2 951.5
06 21.09 С 1 30 км 1/0
[Ci fib]
+16.0 +12.2 78 +17 +17 тепло 1018.3 951.5 +16.0
07 21.09 С 2 30 км 1/0
[Ci fib]
+16.8 +12.4 75 +17 +17 по сезону 1019.2 952.5
08 21.09 СЗ 2 24 км 1/0
[Ci fib]
+20.1 +12.2 60 +22 +25 комфорт 1019.0 953.1
09 21.09 Ю 2 30 км ясно +23.6 +12.0 48 +25 +31 комфорт 1018.4 953.2
10 21.09 С 1 26 км ясно +25.7 +12.0 42 +27 +37 жарко 1018.1 953.4
11 21.09 Ю 2 30 км ясно +28.3 +12.2 37 +29 +41 жарко 1017.1 953.0
12 21.09 ЮВ 3 30 км 3/0
[Ci fib]
+29.8 +11.5 32 +30 +41 жарко 1016.4 952.6
13 21.09 Ю 3 30 км 3/1
[Cu hum Ci fib]
+31.2 +11.7 30 +32 +41 жарко 1015.2 951.7
14 21.09 Ю 4 30 км 4/1
[Cu hum Ci fib]
+31.6 +9.9 26 +31 +37 жарко 1014.6 951.2
15 21.09 ЮЗ 3 30 км 4/3 2000 м
[Cu hum Ci fib]
+32.0 +10.4 26 +32 +35 жарко 1014.2 950.9
16 21.09 ЮЗ 2 30 км 4/3 2000 м
[Cu hum Ci fib]
+31.8 +9.0 24 +31 +33 жарко 1014.2 950.9
17 21.09 ЮЗ 4 30 км 8/1
[Cu med, cong Ci fib]
+31.0 +9.1 26 +30 +31 жарко 1014.6 951.1
18 21.09 ЮЗ 2 30 км 8/3 2000 м
[Cu med, cong Cs]
+30.3 +8.9 26 +30 +30 жарко 1014.9 951.3 +32.3
19 21.09 С 4 30 км 9/3 2000 м
[Cu hum Cs]
+28.3 +9.9 32 +29 +29 жарко 1016.1 952.0
20 21.09 С 4 30 км 8/1 1500 м
[Cu hum Cs]
+26.7 +10.3 36 +27 +27 жарко 1017.3 952.8
21 21.09 СЗ 3 30 км 9/1 1500 м
[Cu hum Cs]
+25.4 +9.9 38 +26 +26 жарко 1018.2 953.3
22 21.09 С 2 30 км 9/0
[Ac lent Cs]
+24.6 +9.8 39 +25 +25 комфорт 1018.8 953.7
23 21.09 СВ 2 30 км 9/0
[Ac lent Cs]
+23.8 +9.6 41 +25 +25 комфорт 1019.2 953.9
00 22.09 С 2 30 км ясно +22.1 +10.6 48 +24 +24 комфорт 1019.9 954.3
01 22.09 С 4 30 км ясно +21.0 +10.8 52 +23 +23 комфорт 1020.2 954.3
02 22.09 С 4 30 км ясно +19.7 +10.5 55 +21 +21 комфорт 1020.7 954.5
03 22.09 СЗ 3 30 км ясно +19.0 +10.6 58 +20 +20 тепло 1020.8 954.4
04 22.09 СЗ 2 30 км 1/0
[Ci fib]
+17.4 +10.3 63 +18 +18 тепло 1021.5 954.7
05 22.09 С 2 30 км 1/0
[Ci fib]
+16.7 +10.4 66 +17 +17 тепло 1022.2 955.2
06 22.09 С 2 30 км 1/0
[Ci fib]
+16.4 +10.5 68 +17 +17 тепло 1022.5 955.4 +16.4
07 22.09 С 2 30 км 3/0
[Ci fib]
+17.2 +11.2 68 +18 +18 по сезону 1022.8 955.9
08 22.09 С 1 22 км 1/0
[Ci fib]
+20.4 +11.5 57 +23 +26 комфорт 1022.3 956.2
09 22.09 С 1 30 км 1/0
[Ci fib]
+24.0 +12.2 48 +26 +32 жарко 1021.8 956.4
10 22.09 Ю 2 30 км 3/0
[Ci fib]
+26.7 +12.1 40 +28 +36 жарко 1021.4 956.7
11 22.09 Ю 2 30 км 3/0
[Ci fib]
+28.5 +12.1 36 +30 +40 жарко 1020.8 956.5
12 22.09 Ю 2 20 км н/о +30.8 +11.8 31 +31 +31 жарко 1019.8 956.0
13 22.09 ЮЗ 4 27 км 1/1 1500 м
[Cu hum Ci fib]
+32.7 +10.7 26 +32 +40 жарко 1018.6 955.2
14 22.09 Ю 4 23 км 1/1 1500 м
[Cu hum Ci fib]
+32.7 +10.4 25 +32 +39 жарко 1018.1 954.7
15 22.09 ЮЗ 3 30 км 4/0
[Ci fib]
+33.3 +9.7 23 +32 +37 жарко 1017.5 954.3
16 22.09 ЮЗ 3 30 км 4/0
[Ci fib]
+33.2 +9.3 23 +32 +35 жарко 1017.3 954.1
17 22.09 Ю 2 30 км н/о +32.5 +9.0 23 +31 +31 жарко 1017.5 954.1
18 22.09 ЮЗ 2 30 км 4/0
[Ci fib]
+31.4 +9.5 26 +31 +31 жарко 1017.9 954.2 +33.6
19 22.09 Ю 2 30 км 3/0
[Ci fib]
+29.9 +9.1 27 +29 +29 жарко 1018.6 954.7
20 22.09 штиль 0 30 км 4/0
[Ci fib]
+26.4 +9.1 34 +27 +27 жарко 1020.0 955.2
21 22.09 С 2 28 км 4/0
[Ci fib]
+24.3 +10.0 40 +25 +25 комфорт 1021.0 955.7
22 22.09 С 2 30 км 4/0
[Ci fib]
+23.2 +9.7 42 +25 +25 комфорт 1021.6 956.0
23 22.09 СЗ 3 30 км 3/0
[Ci fib]
+22.8 +7.7 38 +24 +24 комфорт 1021.9 956.3

 

Местоположение метеостанции Madrid (Испания): широта 40.45 долгота -3.55 высота над уровнем моря 582 м.

В архиве по умолчанию представлена погода в Madrid за последнюю неделю. Архивные данные за месяц целиком и за предыдущие месяцы, начиная с января 2011 года, Вы можете получить, выбрав интересующий диапазон дат из раскрывающегося списка и нажав кнопку "Ввод!".


*Определитесь, кто Вы:
робот инопланетянин человек

Внимание! Время в таблицах - всемирное. Для получения местного времени необходимо прибавить поправку, которая в Madrid равна 1 ч.

Смотрите также архив погоды в соседних городах и на ближайших метеорологических станциях:

Погода в Madrid Retiro (Испания) (12 км)
Погода в Madrid Universitaria (Испания) (14 км)
Погода в Madrid Airport (Испания) (22 км)
Погода в Madri-Colmenar (Испания) (33 км)
Погода в Guadalajara (Испания) (39 км)
Погода в Navacerrada (Испания) (54 км)
Погода в Segovia (Испания) (74 км)
Погода в Toledo (Испания) (76 км)
Погода в Avila (Испания) (100 км)
Погода в Cuenca (Испания) (128 км)

Пояснения к столбцам:

Ветер - указаны скорость ветра в м/с - средняя за 10 мин, порывы в срок и между сроками (в фигурных скобках) и направление, откуда дует ветер: С - северный, СВ - северо-восточный, В - восточный, ЮВ - юго-восточный, Ю - южный, ЮЗ - юго-западный, З - западный, СЗ - северо-западный.
Видимость - горизонтальная дальность видимости в метрах или километрах. При видимости от 1 до 10 км при отсутствии осадков обычно наблюдается дымка, при ухудшении видимости до 1 км и менее - туман. В сухую погоду видимость может ухудшаться дымом, пылью или мглою.
Явления - указаны атмосферные явления, наблюдавшиеся в срок или в последний час перед сроком; фигурными скобками обозначены явления, наблюдавшиеся между сроками (за 1-3 часа до срока); квадратными скобками обозначены град или гололедные отложения с указанием их диаметра в мм.
Облачность - указаны через наклонную черту общая и нижняя облачность в баллах и высота нижней границы облаков в метрах; квадратными скобками обозначены формы облаков: Ci - перистые, Cs - перисто-слоистые, Cc - перисто-кучевые, Ac - высококучевые, As - высокослоистые, Sc - слоисто-кучевые, Ns - слоисто-дождевые, Cu - кучевые, Cb - кучево-дождевые. Подробнее классификацию облаков см. в Атласе облаков (PDF).
T - Температура воздуха - температура, измеренная на высоте 2 м над землей.
Td - Температура точки росы - температура, при понижении до которой содержащийся в воздухе водяной пар достигнет насыщения.
f - Относительная влажность воздуха - влажноcть воздуха, измеренная на высоте 2 м над землей.
Te - Эффективная температура - температура, которую ощущает одетый по сезону человек в тени. Характеристика душности погоды. При расчете учитывается влияние влажности воздуха и скорости ветра на теплоощущения человека.
Tes - Эффективная температура на солнце - температура, которую ощущает человек, с поправкой на солнечный нагрев. Характеристика знойности погоды. Зависит от высоты солнца над горизонтом, облачности и скорости ветра. Ночью, в пасмурную погоду, а также при ветре 12 м/с и более поправка равна нулю.
P - Атмосферное давление - приведенное к уровню моря атмосферное давление.
Po - Атмосферное давление - измеренное на уровне метеостанции атмосферное давление.
Tmin - Минимальная температура - минимум температуры воздуха на высоте 2 м над землей.
Tmax - Максимальная температура - максимум температуры воздуха на высоте 2 м над землей.
R - Количество осадков - Количество выпавших осадков за период времени, мм. При наведении курсора мыши на число - период времени, за который выпало указанное количество осадков.
R24 - Количество осадков - Количество выпавших осадков за 24 часа, мм.
S - Снежный покров - Высота снежного покрова, см. При наведении курсора мыши на число - состояние снежного покрова и степень покрытия местности в баллах.